{"data":{"norad_id":48650,"intl_designator":"2021-044N","name":"STARLINK-2672","alt_names":[],"object_type":"PAYLOAD","status":"ACTIVE","operator":null,"country":"US","launch_date":"2021-05-26","launch_site_code":"AFETR","launch_vehicle":null,"mission":null,"orbit_class":"UNKNOWN","rcs_meters":null,"size_class":null,"mass_kg":null,"dimensions":null,"purposes":["comms"],"wikipedia_slug":null,"has_3d_model":false,"image_url":null,"decayed_at":null,"tle_current":{"epoch":"2026-09-18T19:34:59.219616Z","epoch_age_seconds":182827,"freshness":"STALE","line1":"1 48650U 21044N   26261.81596319 -.00000158  00000+0  66926-5 0  9991","line2":"2 48650  53.1596 295.1749 0001708  81.8446 278.2750 15.31700467293412","mean_motion":15.31700467,"eccentricity":0.0001708,"inclination_deg":53.1596,"raan_deg":295.1749,"arg_perigee_deg":81.8446,"mean_anomaly_deg":278.275,"bstar":6.6926e-6,"rev_number":29341,"period_min":94.013159297418,"perigee_km":469.56881517029,"apogee_km":471.90839107632,"semimajor_km":6848.8756031233,"source":"CELESTRAK","updated_at":"2026-09-20T09:00:39.141585Z"}}}